Location: Godiavel Galaoual
(15.2485°N, 12.6604°W)
Time: 23:57:29
(UTC+00:00)

Explorer 7 - Pass Details

Date: 20 June 2021
Orbit: 484 x 676 km, 50.3° (Epoch: 29 July)

Event Time Altitude Azimuth Distance (km) Brightness Sun altitude
Rises 20:28:47 0° 255° (WSW) 2,968 11.3 -14.9°
Reaches altitude 10° 20:31:53 10° 276° (W) 2,080 10.8 -15.5°
Maximum altitude 20:34:57 17° 316° (NW) 1,692 10.3 -16.2°
Drops below altitude 10° 20:38:03 10° 355° (N) 2,101 10.2 -16.8°
Sets 20:41:13 0° 16° (NNE) 3,014 10.8 -17.5°
